GW7140 Weather Reports


time (UTC)temp
F
wind
direction
speed
knots
gust
knots
rain 1hr
in
rain 24hr
in
rain mn
in
humidity
%
barometer
mb
20260505113357 63 113 10.4 15.6 0.00 0.00 0.00 95
20260505113056 63 98 9.6 19.1 0.00 0.00 0.00 96
20260505112805 62 108 5.2 10.4 0.00 0.00 0.00 96
20260505112502 63 132 5.2 20.0 0.00 0.00 0.00 96
20260505112157 62 111 6.1 14.8 0.00 0.00 0.00 96
20260505111907 62 116 5.2 9.6 0.00 0.00 0.00 96
20260505111605 62 142 5.2 13.9 0.00 0.00 0.00 95
20260505111304 63 110 5.2 13.9 0.00 0.00 0.00 95
20260505111002 63 115 4.3 14.8 0.00 0.00 0.00 95
20260505110706 63 134 9.6 13.0 0.00 0.00 0.00 94
20260505110356 63 108 7.8 12.2 0.00 0.00 0.00 93
20260505102204 62 125 9.6 18.2 0.00 0.00 0.00 94
20260505101858 62 131 10.4 14.8 0.00 0.00 0.00 95
20260505101608 62 140 9.6 13.0 0.00 0.00 0.00 95
20260505101306 62 109 7.0 20.0 0.00 0.00 0.00 95
20260505101004 62 121 8.7 14.8 0.00 0.00 0.00 95
20260505100702 62 121 7.0 15.6 0.00 0.00 0.00 95
20260505100402 62 106 5.2 14.8 0.00 0.00 0.00 95
20260505100005 62 117 10.4 12.2 0.00 0.00 0.00 96
20260505093958 62 137 7.0 9.6 0.00 0.00 0.00 96
20260505093708 62 111 3.5 14.8 0.00 0.00 0.00 96
20260505093403 62 96 7.0 12.2 0.00 0.00 0.00 96
20260505093108 62 122 3.5 13.0 0.00 0.00 0.00 96
20260505092808 62 150 5.2 17.4 0.00 0.00 0.00 96
20260505092507 62 115 7.8 13.9 0.00 0.00 0.00 96
20260505092206 62 135 4.3 13.9 0.00 0.00 0.00 95
20260505091905 62 111 7.8 9.6 0.00 0.00 0.00 95
20260505091605 62 118 3.5 8.7 0.00 0.00 0.00 95
20260505091303 62 145 9.6 13.9 0.00 0.00 0.00 95
20260505091001 62 108 5.2 12.2 0.00 0.00 0.00 95
20260505090701 62 127 6.1 10.4 0.00 0.00 0.00 95
20260505090359 62 123 8.7 17.4 0.00 0.00 0.00 96
20260505090109 62 127 6.1 10.4 0.00 0.00 0.00 96
20260505090001 62 58 6.1 7.8 0.00 0.00 0.00 96
20260505084302 62 127 4.3 7.8 0.00 0.00 0.00 95
20260505084004 62 143 1.7 6.1 0.00 0.00 0.00 95
20260505083710 62 123 7.8 15.6 0.00 0.00 0.00 95
20260505083407 62 113 4.3 7.0 0.00 0.00 0.00 95
20260505083105 62 75 0.9 7.8 0.00 0.00 0.00 96
20260505082804 62 130 11.3 15.6 0.00 0.00 0.00 96
20260505082504 62 104 6.1 9.6 0.00 0.00 0.00 96
20260505082204 62 107 4.3 7.8 0.00 0.00 0.00 96
20260505081904 62 140 7.8 9.6 0.00 0.00 0.00 96
20260505081603 62 162 3.5 6.1 0.00 0.00 0.00 96
20260505081301 62 149 3.5 7.0 0.00 0.00 0.00 96
20260505081008 62 140 6.1 12.2 0.00 0.00 0.00 96
20260505080708 62 126 3.5 7.0 0.00 0.00 0.00 97
20260505080407 62 140 3.5 12.2 0.00 0.00 0.00 97
20260505080105 62 102 2.6 10.4 0.00 0.00 0.00 97
20260505080009 62 190 3.5 9.6 0.00 0.00 0.00 97
20260505074310 62 115 4.3 12.2 0.00 0.00 0.00 97
20260505074009 62 134 3.5 9.6 0.00 0.00 0.00 97
20260505073709 62 133 6.1 12.2 0.00 0.00 0.00 97
20260505073405 62 96 4.3 10.4 0.00 0.00 0.00 97
20260505073108 62 151 5.2 10.4 0.00 0.00 0.00 97
20260505072813 62 129 7.8 10.4 0.00 0.00 0.00 97
20260505072511 62 140 7.0 12.2 0.00 0.00 0.00 97
20260505072211 62 115 3.5 8.7 0.00 0.00 0.00 97
20260505071909 62 111 9.6 14.8 0.00 0.00 0.00 97
20260505071609 62 158 7.8 9.6 0.00 0.00 0.00 97
20260505071306 62 135 4.3 9.6 0.00 0.00 0.00 97
20260505071004 62 191 7.8 10.4 0.00 0.00 0.00 97
20260505070713 63 131 7.8 19.1 0.00 0.00 0.00 97
20260505070411 63 102 3.5 14.8 0.00 0.00 0.00 97
20260505070112 63 128 6.1 7.8 0.00 0.00 0.00 97
20260505070009 63 96 4.3 12.2 0.00 0.00 0.00 97
20260505064611 63 149 10.4 18.2 0.00 0.00 0.00 97
20260505064302 63 128 4.3 12.2 0.00 0.00 0.00 97
20260505064008 63 108 5.2 13.0 0.00 0.00 0.00 97
20260505063705 63 96 5.2 10.4 0.00 0.00 0.00 97
20260505063408 63 110 5.2 7.8 0.00 0.00 0.00 97
20260505063110 63 97 6.1 10.4 0.00 0.00 0.00 97
20260505062811 63 117 6.1 9.6 0.00 0.00 0.00 97
20260505062508 63 123 5.2 13.9 0.00 0.00 0.00 97
20260505062209 63 102 9.6 18.2 0.00 0.00 0.00 97
20260505061904 63 148 7.8 18.2 0.00 0.00 0.00 97
20260505061610 63 151 8.7 13.0 0.00 0.00 0.00 97
20260505061310 63 129 8.7 13.9 0.00 0.00 0.00 97
20260505061006 63 108 6.1 12.2 0.00 0.00 0.00 97
20260505060706 63 158 7.8 13.0 0.00 0.00 0.00 97
20260505060405 63 145 7.0 14.8 0.00 0.00 0.00 97
20260505060111 63 108 10.4 14.8 0.00 0.00 0.00 97
20260505060010 63 143 5.2 10.4 0.00 0.00 0.00 97
20260505054312 63 107 6.1 13.0 0.00 0.00 0.00 97
20260505054011 63 126 7.0 13.9 0.00 0.00 0.00 97
20260505053714 63 146 7.8 13.9 0.00 0.00 0.00 97
20260505053412 63 112 8.7 13.9 0.00 0.00 0.00 97
20260505053106 63 112 6.1 13.0 0.00 0.00 0.00 97
20260505052816 63 84 6.1 13.0 0.00 0.00 0.00 97
20260505052514 63 155 7.8 9.6 0.00 0.00 0.00 97
20260505052212 63 125 8.7 13.0 0.00 0.00 0.00 97
20260505051908 63 144 6.1 13.9 0.00 0.00 0.00 97
20260505051610 63 119 7.8 17.4 0.00 0.00 0.00 97
20260505051307 63 139 10.4 17.4 0.00 0.00 0.00 97
20260505051006 63 99 8.7 13.0 0.00 0.00 0.00 97
20260505050705 63 114 8.7 20.0 0.00 0.00 0.00 97
20260505050405 63 129 8.7 15.6 0.00 0.00 0.00 97
20260505050105 63 117 8.7 18.2 0.00 0.00 0.00 97
20260505041617 63 146 7.0 9.6 0.00 0.00 0.00 96
20260505041318 63 97 8.7 13.0 0.00 0.00 0.00 96
20260505041008 63 111 3.5 10.4 0.00 0.00 0.00 97
20260505040711 63 105 5.2 7.8 0.00 0.00 0.00 96
20260505040410 63 106 7.8 10.4 0.00 0.00 0.00 96
20260505040109 63 131 7.0 8.7 0.00 0.00 0.00 96
20260505040002 64 108 5.2 8.7 0.00 0.00 0.00 96
20260505034009 63 122 6.1 10.4 0.00 0.00 0.00 96
20260505033708 63 103 5.2 8.7 0.00 0.00 0.00 96
20260505033418 63 159 3.5 9.6 0.00 0.00 0.00 96
20260505033117 63 68 6.1 7.0 0.00 0.00 0.00 96
20260505032816 63 131 7.0 10.4 0.00 0.00 0.00 96
20260505032510 63 119 4.3 13.0 0.00 0.00 0.00 96
20260505032218 63 121 6.1 9.6 0.00 0.00 0.00 96
20260505031919 63 105 5.2 8.7 0.00 0.00 0.00 96
20260505031618 63 149 7.0 13.0 0.00 0.00 0.00 96
20260505031316 63 132 5.2 7.8 0.00 0.00 0.00 96
20260505031016 63 112 5.2 10.4 0.00 0.00 0.00 96
20260505030713 63 118 5.2 8.7 0.00 0.00 0.00 96
20260505030412 63 166 4.3 8.7 0.00 0.00 0.00 96
20260505030108 63 129 1.7 10.4 0.00 0.00 0.00 96
20260505030009 63 99 4.3 7.8 0.00 0.00 0.00 96
20260505024013 64 125 7.8 10.4 0.00 0.00 0.00 96
20260505023710 64 124 3.5 5.2 0.00 0.00 0.00 95
20260505023417 64 171 5.2 7.0 0.00 0.00 0.00 95
20260505023114 64 104 4.3 9.6 0.00 0.00 0.00 95
20260505022811 64 129 5.2 8.7 0.00 0.00 0.00 95
20260505022517 64 124 7.0 12.2 0.00 0.00 0.00 95
20260505022219 64 137 6.1 7.0 0.00 0.00 0.00 95
20260505021916 64 110 3.5 8.7 0.00 0.00 0.00 95
20260505021612 64 115 3.5 6.1 0.00 0.00 0.00 95
20260505021309 64 103 6.1 12.2 0.00 0.00 0.00 96
20260505021018 64 113 5.2 7.0 0.00 0.00 0.00 95
20260505020715 64 158 5.2 7.8 0.00 0.00 0.00 95
20260505020410 64 121 5.2 8.7 0.00 0.00 0.00 95
20260505020119 63 132 5.2 7.8 0.00 0.00 0.00 95
20260505020010 64 108 3.5 7.0 0.00 0.00 0.00 95
20260505014321 64 114 2.6 6.1 0.00 0.00 0.00 95
20260505014018 64 110 5.2 7.0 0.00 0.00 0.00 95
20260505013715 64 123 5.2 9.6 0.00 0.00 0.00 95
20260505013412 63 99 4.3 8.7 0.00 0.00 0.00 96
20260505013121 63 122 2.6 6.1 0.00 0.00 0.00 96
20260505012819 63 130 4.3 7.8 0.00 0.00 0.00 96
20260505012515 64 114 4.3 8.7 0.00 0.00 0.00 96
20260505012221 64 111 1.7 9.6 0.00 0.00 0.00 96
20260505011917 64 112 5.2 7.8 0.00 0.00 0.00 96
20260505011614 64 121 7.0 10.4 0.00 0.00 0.00 97
20260505011312 63 111 7.0 10.4 0.00 0.00 0.00 97
20260505011018 63 103 5.2 10.4 0.00 0.00 0.00 97
20260505010716 63 126 1.7 12.2 0.00 0.00 0.00 97
20260505010414 63 146 7.0 10.4 0.00 0.00 0.00 97
20260505010122 63 113 3.5 7.8 0.00 0.00 0.00 97
20260505010001 63 97 2.6 7.8 0.00 0.00 0.00 97
20260505004014 63 105 4.3 8.7 0.00 0.00 0.00 97
20260505003722 63 122 4.3 8.7 0.00 0.00 0.00 97
20260505003419 63 114 5.2 7.8 0.00 0.00 0.00 97
20260505003113 63 107 5.2 7.0 0.00 0.00 0.00 97
20260505002821 63 138 5.2 10.4 0.00 0.00 0.00 97
20260505002519 63 126 6.1 12.2 0.00 0.00 0.00 97
20260505002217 63 173 5.2 7.8 0.00 0.00 0.00 97
20260505001914 63 112 6.1 9.6 0.00 0.00 0.00 96
20260505001619 63 119 7.0 10.4 0.00 0.00 0.00 96
20260505001314 63 100 5.2 12.2 0.00 0.00 0.00 96
20260505001022 63 135 7.0 9.6 0.00 0.00 0.00 96
20260505000715 63 149 4.3 8.7 0.00 0.00 0.00 96
20260505000420 63 113 4.3 10.4 0.00 0.00 0.00 96
20260505000113 63 86 3.5 9.6 0.00 0.00 0.00 96
20260505000003 63 110 6.1 9.6 0.00 0.00 0.00 96
20260504234021 64 106 4.3 6.1 0.00 0.00 0.00 96
20260504233716 64 112 5.2 9.6 0.00 0.00 0.00 96
20260504233420 64 117 4.3 7.0 0.00 0.00 0.00 96
20260504233116 64 135 4.3 8.7 0.00 0.00 0.00 96
20260504232823 63 134 7.0 7.8 0.00 0.00 0.00 96
20260504232521 64 134 6.1 10.4 0.00 0.00 0.00 96
20260504232218 64 148 7.0 10.4 0.00 0.00 0.00 96
20260504231914 64 105 4.3 6.1 0.00 0.00 0.00 96
20260504231621 64 160 4.3 7.0 0.00 0.00 0.00 96
20260504231319 64 95 7.8 8.7 0.00 0.00 0.00 96
20260504231017 64 91 2.6 8.7 0.00 0.00 0.00 96
20260504230715 64 108 2.6 8.7 0.00 0.00 0.00 96
20260504230423 64 132 6.1 7.8 0.00 0.00 0.00 96
20260504230118 64 104 2.6 5.2 0.00 0.00 0.00 96
20260504230001 64 141 4.3 7.0 0.00 0.00 0.00 96
20260504224021 64 124 1.7 7.8 0.00 0.00 0.00 96
20260504223719 64 117 0.9 2.6 0.00 0.00 0.00 96
20260504223415 64 128 5.2 8.7 0.00 0.00 0.00 96
20260504223114 64 278 1.7 2.6 0.00 0.00 0.00 96
20260504222824 64 120 0.9 2.6 0.00 0.00 0.00 96
20260504222520 64 98 2.6 7.0 0.00 0.00 0.00 96
20260504222217 64 143 2.6 7.0 0.00 0.00 0.00 96
20260504221924 64 140 1.7 5.2 0.00 0.00 0.00 96
20260504221623 64 99 2.6 6.1 0.00 0.00 0.00 96
20260504221320 64 76 4.3 7.8 0.00 0.00 0.00 96
20260504221017 64 115 9.6 14.8 0.00 0.00 0.00 96
20260504220725 64 100 3.5 9.6 0.00 0.00 0.00 96
20260504220422 64 96 3.5 7.0 0.00 0.00 0.00 96
20260504220120 64 90 5.2 7.0 0.00 0.00 0.00 96
20260504220011 64 97 4.3 6.1 0.00 0.00 0.00 96
20260504214026 65 124 2.6 5.2 0.00 0.00 0.00 96
20260504213724 65 95 2.6 6.1 0.00 0.00 0.00 96
20260504213420 64 70 0.9 2.6 0.00 0.00 0.00 96
20260504213117 65 111 3.5 7.8 0.00 0.00 0.00 96
20260504212826 65 98 2.6 5.2 0.00 0.00 0.00 96
20260504212522 65 100 5.2 8.7 0.00 0.00 0.00 96
20260504212220 64 137 4.3 7.0 0.00 0.00 0.00 96
20260504211928 65 75 0.9 6.1 0.00 0.00 0.00 96
20260504211626 65 125 1.7 3.5 0.00 0.00 0.00 96
20260504211323 65 108 1.7 3.5 0.00 0.00 0.00 96
20260504211027 65 91 2.6 5.2 0.00 0.00 0.00 96
20260504210722 65 69 1.7 3.5 0.00 0.00 0.00 96
20260504210419 64 30 0.9 2.6 0.00 0.00 0.00 96
20260504210127 65 112 1.7 8.7 0.00 0.00 0.00 96
20260504210007 64 154 5.2 8.7 0.00 0.00 0.00 96
20260504204027 65 62 0.9 5.2 0.00 0.00 0.00 95
20260504203722 65 121 5.2 7.8 0.00 0.00 0.00 95
20260504203419 65 97 6.1 9.6 0.00 0.00 0.00 95
20260504203127 65 71 1.7 7.8 0.00 0.00 0.00 95
20260504202824 65 100 3.5 5.2 0.00 0.00 0.00 95
20260504202521 64 127 8.7 12.2 0.00 0.00 0.00 95
20260504202228 65 97 3.5 12.2 0.00 0.00 0.00 95
20260504201926 64 138 4.3 9.6 0.00 0.00 0.00 95
20260504201622 65 116 4.3 10.4 0.00 0.00 0.00 95
20260504201329 65 123 3.5 12.2 0.00 0.00 0.00 95
20260504201027 65 127 4.3 7.8 0.00 0.00 0.00 95
20260504200728 65 75 3.5 7.0 0.00 0.00 0.00 95
20260504200424 65 122 6.1 9.6 0.00 0.00 0.00 94
20260504200121 65 107 5.2 10.4 0.00 0.00 0.00 94
20260504200002 66 80 6.1 13.9 0.00 0.00 0.00 94
20260504194320 66 91 0.9 6.1 0.00 0.00 0.00 92
20260504194027 66 95 0.9 5.2 0.00 0.00 0.00 91
20260504193721 66 265 7.0 12.2 0.00 0.00 0.00 91
20260504193429 66 73 2.6 2.6 0.00 0.00 0.00 92
20260504193125 66 128 5.2 7.0 0.00 0.00 0.00 91
20260504192821 66 87 3.5 6.1 0.00 0.00 0.00 91
20260504192530 65 235 3.5 3.5 0.00 0.00 0.00 92
20260504192227 66 114 4.3 10.4 0.00 0.00 0.00 92
20260504191925 66 86 1.7 5.2 0.00 0.00 0.00 93
20260504191623 66 71 3.5 6.1 0.00 0.00 0.00 93
20260504191327 66 95 0.9 1.7 0.00 0.00 0.00 91
20260504191029 66 125 7.0 8.7 0.00 0.00 0.00 91
20260504190725 66 232 5.2 9.6 0.00 0.00 0.00 88
20260504190424 65 66 5.2 8.7 0.00 0.00 0.00 88
20260504190122 66 109 4.3 7.8 0.00 0.00 0.00 90
20260504190002 66 124 4.3 6.1 0.00 0.00 0.00 89
20260504184028 67 60 5.2 7.0 0.00 0.00 0.00 89
20260504183727 66 107 6.1 13.0 0.00 0.00 0.00 89
20260504183427 66 93 2.6 12.2 0.00 0.00 0.00 89
20260504183125 66 73 5.2 10.4 0.00 0.00 0.00 90
20260504182822 67 31 1.7 7.8 0.00 0.00 0.00 90
20260504182521 67 110 1.7 5.2 0.00 0.00 0.00 87
20260504182222 67 102 5.2 7.8 0.00 0.00 0.00 89
20260504181931 67 66 4.3 6.1 0.00 0.00 0.00 86
20260504181631 67 338 3.5 10.4 0.00 0.00 0.00 88
20260504181330 66 99 3.5 6.1 0.00 0.00 0.00 89
20260504181030 66 104 3.5 13.0 0.00 0.00 0.00 86
20260504180730 66 79 5.2 7.0 0.00 0.00 0.00 89
20260504180429 66 102 2.6 9.6 0.00 0.00 0.00 88
20260504180129 66 7 0.9 3.5 0.00 0.00 0.00 89
20260504180010 67 140 5.2 12.2 0.00 0.00 0.00 86
20260504174031 67 74 1.7 7.0 0.00 0.00 0.00 86
20260504173730 68 73 3.5 6.1 0.00 0.00 0.00 84
20260504173429 67 111 4.3 5.2 0.00 0.00 0.00 84
20260504173125 68 54 8.7 10.4 0.00 0.00 0.00 82
20260504172823 68 74 7.8 8.7 0.00 0.00 0.00 80
20260504172522 68 136 2.6 6.1 0.00 0.00 0.00 82
20260504172233 68 96 1.7 7.0 0.00 0.00 0.00 82
20260504171928 69 67 5.2 12.2 0.00 0.00 0.00 77
20260504171633 69 113 4.3 7.0 0.00 0.00 0.00 78
20260504171333 68 121 3.5 5.2 0.00 0.00 0.00 80
20260504171032 68 339 2.6 3.5 0.00 0.00 0.00 78
20260504170729 68 84 0.9 8.7 0.00 0.00 0.00 79
20260504170428 68 86 3.5 8.7 0.00 0.00 0.00 79
20260504170128 68 108 5.2 8.7 0.00 0.00 0.00 78
20260504160426 68 119 5.2 12.2 0.00 0.00 0.00 75
20260504160133 68 80 8.7 10.4 0.00 0.00 0.00 75
20260504151029 66 27 5.2 14.8 0.00 0.00 0.00 85
20260504150727 66 84 4.3 17.4 0.00 0.00 0.00 86
20260504150436 66 128 5.2 9.6 0.00 0.00 0.00 84
20260504150136 67 69 4.3 12.2 0.00 0.00 0.00 84
20260504141329 66 116 7.0 10.4 0.00 0.00 0.00 87
20260504141039 66 118 7.0 13.0 0.00 0.00 0.00 88
20260504140738 66 84 8.7 10.4 0.00 0.00 0.00 87
20260504140433 66 103 7.8 15.6 0.00 0.00 0.00 85
20260504140133 65 99 4.3 8.7 0.00 0.00 0.00 86
20260504130430 65 135 7.0 12.2 0.00 0.00 0.00 82
20260504130140 65 111 6.1 10.4 0.00 0.00 0.00 85
20260504120137 65 134 7.0 17.4 0.00 0.00 0.00 70